Regional Weather Roundup
Issued by NWS Albany, NY

Home | Current Version | Previous Version | Graphics & Text | Print | Product List | Glossary Off
Versions: 1 2 3 4 5 6 7 8 9 10 11 12 13 14 15 16 17 18 19 20 21 22 23 24 25 26 27 28

000
ASUS41 KALY 270610
RWRALY

NEW YORK STATE HOURLY WEATHER ROUNDUP
NATIONAL WEATHER SERVICE ALBANY NY
200 AM EDT SAT MAY 27 2017

NOTE: "FAIR" INDICATES FEW OR NO CLOUDS BELOW 12,000 FEET WITH NO
SIGNIFICANT WEATHER AND/OR NO OBSTRUCTIONS TO VISIBILITY.

NYZ032-033-038>043-046>054-057>066-NYZ062>081-082-084-270700-
EAST


CITY           SKY/WX    TMP DP  RH WIND       PRES   REMARKS
ALBANY         CLOUDY    54  51  90 N3        29.82S
GLENS FALLS    NOT AVBL
POUGHKEEPSIE   PTCLDY    54  53  97 CALM      29.80S
NEWBURGH       MOCLDY    59  54  82 W12       29.83R
MONTGOMERY     MOCLDY    57  51  80 W7        29.82R
WHITE PLAINS   CLEAR     58  52  80 W5        29.81R
ISLIP          CLEAR     56  55  97 NW5       29.80R
NEW YORK CITY  CLEAR     63  53  70 NW10      29.81S
CENTRAL PARK   CLEAR     62  53  72 VRB3      29.85R
$$

NYZ005>009-017-018-044>046-055-056-270700-
CENTRAL


CITY           SKY/WX    TMP DP  RH WIND       PRES   REMARKS
FULTON         LGT RAIN  56  55  97 CALM      29.86S FOG
SYRACUSE       LGT RAIN  55  55 100 W6        29.85S FOG
ROME           PTCLDY    53  53 100 CALM      29.86S
ELMIRA         CLOUDY    58  53  84 W3        29.86F
BINGHAMTON     CLOUDY    53  53 100 W7        29.86S
MONTICELLO     MOCLDY    54  52  94 NW3       29.86R
$$

NYZ026>034-041>043-087-270700-
NORTH


CITY           SKY/WX    TMP DP  RH WIND       PRES   REMARKS
WATERTOWN      CLOUDY    54  54 100 CALM      29.85F
FORT DRUM      NOT AVBL
OGDENSBURG     FAIR      51  50  97 CALM      29.86S
MASSENA        FOG       49  49 100 CALM      29.87S VSB 3/4
SARANAC LAKE   FOG       43  43 100 CALM      29.83F VSB 1/2
PLATTSBURGH    MOCLDY    50  46  86 W6        29.83S
$$

NYZ001>004-010>016-019>021-085-270700-
WEST


CITY           SKY/WX    TMP DP  RH WIND       PRES   REMARKS
NIAGARA FALLS  CLOUDY    58  54  86 S5        29.88R
BUFFALO        CLOUDY    54  52  93 SW8       29.88S
DUNKIRK        CLOUDY    56  53  90 SW7       29.91R
JAMESTOWN      CLOUDY    52  48  87 CALM      29.91S VSB 1
WELLSVILLE     CLOUDY    54  50  86 W8        29.91S
ROCHESTER      CLOUDY    58  55  90 W7        29.86F
PENN YAN       CLOUDY    59  51  75 CALM      29.87S
$$

             KEY
       WCI = WIND CHILL INDEX
       VSB = VISIBILITY
       HX  = HEAT INDEX
$$




USA.gov is the U.S. government's official web portal to all federal, state and local government web resources and services.